Location: Unspecified
(0.0000°N, 0.0000°E)
Time: 06:50:04
(UTC+00:00)

Envisat - Pass Details

Date: 12 October 2019
Orbit: 764 x 766 km, 98.1° (Epoch: 14 October)

Event Time Altitude Azimuth Distance (km) Brightness Sun altitude
Rises 18:53:10 0° 179° (S) 3,230 6.3 -16.5°
Reaches altitude 10° 18:55:32 10° 184° (S) 2,302 5.6 -17.1°
Maximum altitude 19:00:24 48° 258° (WSW) 988 4.0 -18.3°
Drops below altitude 10° 19:05:16 10° 332° (NNW) 2,292 5.7 -19.5°
Sets 19:07:38 0° 338° (NNW) 3,215 6.4 -20.1°
